Regional Weather Roundup
Issued by NWS

Home | Current Version | Previous Version | Text Only | Print | Product List | Glossary Off
Versions: 1 2 3 4 5 6 7 8 9 10 11 12 13 14 15 16 17 18 19 20 21 22 23 24 25 26 27 28 29 30 31 32 33 34 35 36 37 38 39 40 41 42 43 44 45 46 47 48 49 50

575
ASUS43 KOAX 250702
RWRNE

WEATHER ROUNDUP FOR NEBRASKA
NATIONAL WEATHER SERVICE OMAHA NE
200 AM CDT WED APR 25 2018

NOTES: SATELLITE DATA IS BEING USED TO AUGMENT CLOUD COVER ABOVE
       12000 FEET.
       "FAIR" INDICATES FEW OR NO CLOUDS BELOW 12,000 FEET WITH NO
       SIGNIFICANT WEATHER AND/OR OBSTRUCTIONS TO VISIBILITY.


NEZ001>004-019>022-054>056-250800-
NEBRASKA PANHANDLE

CITY           SKY/WX    TMP DP  RH WIND       PRES   REMARKS
SCOTTSBLUFF    PTCLDY    30  28  92 N5        30.42F WCI  25
ALLIANCE       CLOUDY    31  31 100 W6        30.40F WCI  25
CHADRON        CLEAR     26  24  92 SW7       30.42F WCI  18
GORDON         PTSUNNY   36  30  79 W7        30.38F WCI  30
SIDNEY         CLOUDY    31  28  89 NW7       30.41F WCI  24
$$

NEZ057>060-069>072-079>082-250800-
SOUTHWEST NEBRASKA

CITY           SKY/WX    TMP DP  RH WIND       PRES   REMARKS
NORTH PLATTE   CLOUDY    37  34  89 N9        30.38F WCI  30
IMPERIAL       CLOUDY    36  32  85 NW14      30.39F WCI  27
LEXINGTON      DRIZZLE   39  35  86 NW13      30.34F WCI  32
MCCOOK         CLOUDY    38  34  85 NW14      30.36F WCI  30
OGALLALA       CLOUDY    38  33  80 NW7       30.40F WCI  33
$$

NEZ005>010-023>029-035>040-094-250800-
NORTH CENTRAL NEBRASKA

CITY           SKY/WX    TMP DP  RH WIND       PRES   REMARKS
VALENTINE      CLOUDY    39  34  82 NW8       30.37F WCI  33
AINSWORTH      CLOUDY    38  36  92 NW6       30.36F WCI  33
BROKEN BOW     CLOUDY    39  35  86 N15       30.34S WCI  31
O`NEILL        CLOUDY    42  40  91 N5        30.35S
ORD            LGT RAIN  40  38  93 N13       30.32S WCI  32
THEDFORD       CLOUDY    37  35  93 W5        30.38F WCI  33
$$

NEZ041-046>049-061>064-073>077-083>087-250800-
SOUTH CENTRAL NEBRASKA

CITY           SKY/WX    TMP DP  RH WIND       PRES   REMARKS
GRAND ISLAND   CLOUDY    42  39  89 N16       30.30R
AURORA         CLOUDY    42  40  95 N16       30.27S
HASTINGS       CLOUDY    41  40  96 N18       30.27F
HEBRON         CLOUDY    47  45  92 N14       30.24S
HOLDREGE       CLOUDY    38  37  96 N13G20    30.31F WCI  31
KEARNEY        CLOUDY    40  38  93 N18       30.31S WCI  31
YORK           MIX PCPN  41  41 100 N15G22    30.27R
$$

NEZ011>018-030>034-042>045-250800-
NORTHEAST NEBRASKA

CITY           SKY/WX    TMP DP  RH WIND       PRES   REMARKS
NORFOLK        LGT RAIN  42  40  92 N14       30.28S
ALBION         LGT RAIN  42  40  91 N12       30.31R
BLAIR          CLOUDY    46  44  93 N13       30.23R
COLUMBUS       CLOUDY    43  41  93 N13       30.28S
FREMONT        CLOUDY    46  44  91 N8        30.26R
TEKAMAH        CLOUDY    45  43  93 N13       30.25R
WAYNE          RAIN      44  43  97 N13G18    30.28S
$$

NEZ050>053-065>068-078-088>093-250800-
SOUTHEAST NEBRASKA

CITY           SKY/WX    TMP DP  RH WIND       PRES   REMARKS
LINCOLN        LGT RAIN  46  45  96 N17       30.25R FOG
OMAHA EPPLEY   CLOUDY    48  45  89 N15       30.23R
BEATRICE       CLOUDY    50  49  98 N10       30.22S FOG
FALLS CITY     CLOUDY    53  44  71 N9        30.16R
NEBRASKA CITY  CLOUDY    49  48  97 N13       30.20R
PLATTSMOUTH    CLOUDY    49  46  90 N8        30.21S
$$

NEZ044-045-051>053-067-250800-
OMAHA AREA

CITY           SKY/WX    TMP DP  RH WIND       PRES   REMARKS
OMAHA EPPLEY   CLOUDY    48  45  89 N15       30.23R
BLAIR          CLOUDY    46  44  93 N13       30.23R
FREMONT        CLOUDY    46  44  91 N8        30.26R
MILLARD        CLOUDY    49  46  87 N5        30.23R
PLATTSMOUTH    CLOUDY    49  46  90 N8        30.21S
WAHOO          CLOUDY    46  42  88 N17       30.24R
$$




USA.gov is the U.S. government's official web portal to all federal, state and local government web resources and services.